owner,sensor,date,latitude,longitude,vertical_datum,wind_speed,wind_to_direction,wind_speed_of_gust,qcFlag 
WAVCIS,ioos:station:WAVCIS:CSI06:1,2009-07-01T00:00:00Z,28.8667,-90.4833,10.0,3.465,286.0,,'11111222,11111222,99999999' 
WAVCIS,ioos:station:WAVCIS:CSI06:1,2009-07-01T01:00:00Z,28.8667,-90.4833,10.0,4.044,276.0,,'11111222,11111222,99999999' 
WAVCIS,ioos:station:WAVCIS:CSI06:1,2009-07-01T02:00:00Z,28.8667,-90.4833,10.0,2.99,271.0,,'11111222,11111222,99999999' 
WAVCIS,ioos:station:WAVCIS:CSI06:1,2009-07-01T03:00:00Z,28.8667,-90.4833,10.0,1.766,259.0,,'11111222,11111222,99999999' 
WAVCIS,ioos:station:WAVCIS:CSI06:1,2009-07-01T04:00:00Z,28.8667,-90.4833,10.0,2.547,278.0,,'11111222,11111222,99999999' 
WAVCIS,ioos:station:WAVCIS:CSI06:1,2009-07-01T05:00:00Z,28.8667,-90.4833,10.0,3.987,303.0,,'11111222,11111222,99999999' 
WAVCIS,ioos:station:WAVCIS:CSI06:1,2009-07-01T06:00:00Z,28.8667,-90.4833,10.0,3.549,312.0,,'11111222,11111222,99999999' 
WAVCIS,ioos:station:WAVCIS:CSI06:1,2009-07-01T07:00:00Z,28.8667,-90.4833,10.0,3.412,327.0,,'11111222,11111222,99999999' 
WAVCIS,ioos:station:WAVCIS:CSI06:1,2009-07-01T08:00:00Z,28.8667,-90.4833,10.0,1.801,2.0,,'11111222,11111222,99999999' 
WAVCIS,ioos:station:WAVCIS:CSI06:1,2009-07-01T09:00:00Z,28.8667,-90.4833,10.0,1.54,19.0,,'11111222,11111222,99999999' 
WAVCIS,ioos:station:WAVCIS:CSI06:1,2009-07-01T10:00:00Z,28.8667,-90.4833,10.0,0.774,71.0,,'11111222,11111222,99999999' 
WAVCIS,ioos:station:WAVCIS:CSI06:1,2009-07-01T11:00:00Z,28.8667,-90.4833,10.0,1.353,331.0,,'11111222,11111222,99999999' 
WAVCIS,ioos:station:WAVCIS:CSI06:1,2009-07-01T12:00:00Z,28.8667,-90.4833,10.0,2.877,279.0,,'11111222,11111222,99999999' 
WAVCIS,ioos:station:WAVCIS:CSI06:1,2009-07-01T13:00:00Z,28.8667,-90.4833,10.0,1.645,261.0,,'11111222,11111222,99999999' 
WAVCIS,ioos:station:WAVCIS:CSI06:1,2009-07-01T14:00:00Z,28.8667,-90.4833,10.0,2.912,333.0,,'11111222,11111222,99999999' 
WAVCIS,ioos:station:WAVCIS:CSI06:1,2009-07-01T15:00:00Z,28.8667,-90.4833,10.0,2.654,334.0,,'11111222,11111222,99999999' 
WAVCIS,ioos:station:WAVCIS:CSI06:1,2009-07-01T16:00:00Z,28.8667,-90.4833,10.0,3.851,12.0,,'11111222,11111222,99999999' 
WAVCIS,ioos:station:WAVCIS:CSI06:1,2009-07-01T17:00:00Z,28.8667,-90.4833,10.0,2.308,359.0,,'11111222,11111222,99999999' 
WAVCIS,ioos:station:WAVCIS:CSI06:1,2009-07-01T18:00:00Z,28.8667,-90.4833,10.0,0.69,16.0,,'11111222,11111222,99999999' 
WAVCIS,ioos:station:WAVCIS:CSI06:1,2009-07-01T19:00:00Z,28.8667,-90.4833,10.0,0.402,293.0,,'11111222,11111222,99999999' 
WAVCIS,ioos:station:WAVCIS:CSI06:1,2009-07-01T20:00:00Z,28.8667,-90.4833,10.0,1.686,260.0,,'11111222,11111222,99999999' 
WAVCIS,ioos:station:WAVCIS:CSI06:1,2009-07-01T21:00:00Z,28.8667,-90.4833,10.0,2.224,270.0,,'11111222,11111222,99999999' 
WAVCIS,ioos:station:WAVCIS:CSI06:1,2009-07-01T22:00:00Z,28.8667,-90.4833,10.0,2.496,268.0,,'11111222,11111222,99999999' 
WAVCIS,ioos:station:WAVCIS:CSI06:1,2009-07-01T23:00:00Z,28.8667,-90.4833,10.0,2.425,279.0,,'11111222,11111222,99999999' 
WAVCIS,ioos:station:WAVCIS:CSI06:1,2009-07-02T00:00:00Z,28.8667,-90.4833,10.0,2.005,264.0,,'11111222,11111222,99999999' 
WAVCIS,ioos:station:WAVCIS:CSI06:1,2009-07-02T01:00:00Z,28.8667,-90.4833,10.0,2.322,222.0,,'11111222,11111222,99999999' 
WAVCIS,ioos:station:WAVCIS:CSI06:1,2009-07-02T02:00:00Z,28.8667,-90.4833,10.0,2.832,192.0,,'11111222,11111222,99999999' 
WAVCIS,ioos:station:WAVCIS:CSI06:1,2009-07-02T03:00:00Z,28.8667,-90.4833,10.0,3.703,185.0,,'11111222,11111222,99999999' 
WAVCIS,ioos:station:WAVCIS:CSI06:1,2009-07-02T04:00:00Z,28.8667,-90.4833,10.0,3.49,184.0,,'11111222,11111222,99999999' 
WAVCIS,ioos:station:WAVCIS:CSI06:1,2009-07-02T05:00:00Z,28.8667,-90.4833,10.0,1.938,217.0,,'11111222,11111222,99999999' 
WAVCIS,ioos:station:WAVCIS:CSI06:1,2009-07-02T06:00:00Z,28.8667,-90.4833,10.0,2.671,173.0,,'11111222,11111222,99999999' 
WAVCIS,ioos:station:WAVCIS:CSI06:1,2009-07-02T07:00:00Z,28.8667,-90.4833,10.0,2.776,189.0,,'11111222,11111222,99999999' 
WAVCIS,ioos:station:WAVCIS:CSI06:1,2009-07-02T08:00:00Z,28.8667,-90.4833,10.0,2.958,196.0,,'11111222,11111222,99999999' 
WAVCIS,ioos:station:WAVCIS:CSI06:1,2009-07-02T09:00:00Z,28.8667,-90.4833,10.0,3.145,242.0,,'11111222,11111222,99999999' 
WAVCIS,ioos:station:WAVCIS:CSI06:1,2009-07-02T10:00:00Z,28.8667,-90.4833,10.0,2.439,219.0,,'11111222,11111222,99999999' 
WAVCIS,ioos:station:WAVCIS:CSI06:1,2009-07-02T11:00:00Z,28.8667,-90.4833,10.0,2.616,205.0,,'11111222,11111222,99999999' 
WAVCIS,ioos:station:WAVCIS:CSI06:1,2009-07-02T12:00:00Z,28.8667,-90.4833,10.0,1.876,244.0,,'11111222,11111222,99999999' 
WAVCIS,ioos:station:WAVCIS:CSI06:1,2009-07-02T13:00:00Z,28.8667,-90.4833,10.0,1.577,259.0,,'11111222,11111222,99999999' 
WAVCIS,ioos:station:WAVCIS:CSI06:1,2009-07-02T14:00:00Z,28.8667,-90.4833,10.0,2.069,243.0,,'11111222,11111222,99999999' 
WAVCIS,ioos:station:WAVCIS:CSI06:1,2009-07-02T15:00:00Z,28.8667,-90.4833,10.0,2.17,260.0,,'11111222,11111222,99999999' 
WAVCIS,ioos:station:WAVCIS:CSI06:1,2009-07-02T16:00:00Z,28.8667,-90.4833,10.0,2.01,279.0,,'11111222,11111222,99999999' 
WAVCIS,ioos:station:WAVCIS:CSI06:1,2009-07-02T17:00:00Z,28.8667,-90.4833,10.0,1.397,287.0,,'11111222,11111222,99999999' 
WAVCIS,ioos:station:WAVCIS:CSI06:1,2009-07-02T18:00:00Z,28.8667,-90.4833,10.0,0.4,226.0,,'11111222,11111222,99999999' 
WAVCIS,ioos:station:WAVCIS:CSI06:1,2009-07-02T19:00:00Z,28.8667,-90.4833,10.0,2.133,201.0,,'11111222,11111222,99999999' 
WAVCIS,ioos:station:WAVCIS:CSI06:1,2009-07-02T20:00:00Z,28.8667,-90.4833,10.0,5.968,191.0,,'11111222,11111222,99999999' 
WAVCIS,ioos:station:WAVCIS:CSI06:1,2009-07-02T21:00:00Z,28.8667,-90.4833,10.0,7.05,217.0,,'11111222,11111222,99999999' 
WAVCIS,ioos:station:WAVCIS:CSI06:1,2009-07-02T22:00:00Z,28.8667,-90.4833,10.0,3.975,231.0,,'11111222,11111222,99999999' 
WAVCIS,ioos:station:WAVCIS:CSI06:1,2009-07-02T23:00:00Z,28.8667,-90.4833,10.0,3.884,242.0,,'11111222,11111222,99999999' 
WAVCIS,ioos:station:WAVCIS:CSI06:1,2009-07-03T00:00:00Z,28.8667,-90.4833,10.0,5.222,225.0,,'11111222,11111222,99999999' 
WAVCIS,ioos:station:WAVCIS:CSI06:1,2009-07-03T01:00:00Z,28.8667,-90.4833,10.0,3.9,235.0,,'11111222,11111222,99999999' 
WAVCIS,ioos:station:WAVCIS:CSI06:1,2009-07-03T02:00:00Z,28.8667,-90.4833,10.0,2.462,255.0,,'11111222,11111222,99999999' 
WAVCIS,ioos:station:WAVCIS:CSI06:1,2009-07-03T03:00:00Z,28.8667,-90.4833,10.0,3.99,233.0,,'11111222,11111222,99999999' 
WAVCIS,ioos:station:WAVCIS:CSI06:1,2009-07-03T04:00:00Z,28.8667,-90.4833,10.0,2.643,242.0,,'11111222,11111222,99999999' 
WAVCIS,ioos:station:WAVCIS:CSI06:1,2009-07-03T05:00:00Z,28.8667,-90.4833,10.0,3.847,240.0,,'11111222,11111222,99999999' 
WAVCIS,ioos:station:WAVCIS:CSI06:1,2009-07-03T06:00:00Z,28.8667,-90.4833,10.0,3.549,239.0,,'11111222,11111222,99999999' 
WAVCIS,ioos:station:WAVCIS:CSI06:1,2009-07-03T07:00:00Z,28.8667,-90.4833,10.0,1.879,192.0,,'11111222,11111222,99999999' 
WAVCIS,ioos:station:WAVCIS:CSI06:1,2009-07-03T08:00:00Z,28.8667,-90.4833,10.0,3.143,224.0,,'11111222,11111222,99999999' 
WAVCIS,ioos:station:WAVCIS:CSI06:1,2009-07-03T09:00:00Z,28.8667,-90.4833,10.0,3.651,265.0,,'11111222,11111222,99999999' 
WAVCIS,ioos:station:WAVCIS:CSI06:1,2009-07-03T10:00:00Z,28.8667,-90.4833,10.0,4.452,238.0,,'11111222,11111222,99999999' 
WAVCIS,ioos:station:WAVCIS:CSI06:1,2009-07-03T11:00:00Z,28.8667,-90.4833,10.0,4.53,234.0,,'11111222,11111222,99999999' 
WAVCIS,ioos:station:WAVCIS:CSI06:1,2009-07-03T12:00:00Z,28.8667,-90.4833,10.0,4.518,258.0,,'11111222,11111222,99999999' 
WAVCIS,ioos:station:WAVCIS:CSI06:1,2009-07-03T13:00:00Z,28.8667,-90.4833,10.0,3.915,261.0,,'11111222,11111222,99999999' 
WAVCIS,ioos:station:WAVCIS:CSI06:1,2009-07-03T14:00:00Z,28.8667,-90.4833,10.0,3.997,266.0,,'11111222,11111222,99999999' 
WAVCIS,ioos:station:WAVCIS:CSI06:1,2009-07-03T15:00:00Z,28.8667,-90.4833,10.0,3.951,283.0,,'11111222,11111222,99999999' 
WAVCIS,ioos:station:WAVCIS:CSI06:1,2009-07-03T16:00:00Z,28.8667,-90.4833,10.0,4.028,282.0,,'11111222,11111222,99999999' 
WAVCIS,ioos:station:WAVCIS:CSI06:1,2009-07-03T17:00:00Z,28.8667,-90.4833,10.0,3.447,271.0,,'11111222,11111222,99999999' 
WAVCIS,ioos:station:WAVCIS:CSI06:1,2009-07-03T18:00:00Z,28.8667,-90.4833,10.0,3.733,276.0,,'11111222,11111222,99999999' 
WAVCIS,ioos:station:WAVCIS:CSI06:1,2009-07-03T19:00:00Z,28.8667,-90.4833,10.0,4.983,285.0,,'11111222,11111222,99999999' 
WAVCIS,ioos:station:WAVCIS:CSI06:1,2009-07-03T20:00:00Z,28.8667,-90.4833,10.0,4.233,280.0,,'11111222,11111222,99999999' 
WAVCIS,ioos:station:WAVCIS:CSI06:1,2009-07-03T21:00:00Z,28.8667,-90.4833,10.0,3.877,275.0,,'11111222,11111222,99999999' 
WAVCIS,ioos:station:WAVCIS:CSI06:1,2009-07-03T22:00:00Z,28.8667,-90.4833,10.0,3.839,268.0,,'11111222,11111222,99999999' 
WAVCIS,ioos:station:WAVCIS:CSI06:1,2009-07-03T23:00:00Z,28.8667,-90.4833,10.0,4.019,274.0,,'11111222,11111222,99999999' 
WAVCIS,ioos:station:WAVCIS:CSI06:1,2009-07-04T00:00:00Z,28.8667,-90.4833,10.0,4.394,242.0,,'11111222,11111222,99999999' 
WAVCIS,ioos:station:WAVCIS:CSI06:1,2009-07-04T01:00:00Z,28.8667,-90.4833,10.0,4.818,246.0,,'11111222,11111222,99999999' 
WAVCIS,ioos:station:WAVCIS:CSI06:1,2009-07-04T02:00:00Z,28.8667,-90.4833,10.0,5.416,245.0,,'11111222,11111222,99999999' 
WAVCIS,ioos:station:WAVCIS:CSI06:1,2009-07-04T03:00:00Z,28.8667,-90.4833,10.0,4.774,250.0,,'11111222,11111222,99999999' 
WAVCIS,ioos:station:WAVCIS:CSI06:1,2009-07-04T04:00:00Z,28.8667,-90.4833,10.0,4.515,242.0,,'11111222,11111222,99999999' 
WAVCIS,ioos:station:WAVCIS:CSI06:1,2009-07-04T05:00:00Z,28.8667,-90.4833,10.0,4.041,248.0,,'11111222,11111222,99999999' 
WAVCIS,ioos:station:WAVCIS:CSI06:1,2009-07-04T06:00:00Z,28.8667,-90.4833,10.0,4.035,241.0,,'11111222,11111222,99999999' 
WAVCIS,ioos:station:WAVCIS:CSI06:1,2009-07-04T07:00:00Z,28.8667,-90.4833,10.0,4.458,246.0,,'11111222,11111222,99999999' 
WAVCIS,ioos:station:WAVCIS:CSI06:1,2009-07-04T08:00:00Z,28.8667,-90.4833,10.0,4.187,245.0,,'11111222,11111222,99999999' 
WAVCIS,ioos:station:WAVCIS:CSI06:1,2009-07-04T09:00:00Z,28.8667,-90.4833,10.0,4.945,237.0,,'11111222,11111222,99999999' 
WAVCIS,ioos:station:WAVCIS:CSI06:1,2009-07-04T10:00:00Z,28.8667,-90.4833,10.0,5.51,236.0,,'11111222,11111222,99999999' 
WAVCIS,ioos:station:WAVCIS:CSI06:1,2009-07-04T11:00:00Z,28.8667,-90.4833,10.0,5.783,235.0,,'11111222,11111222,99999999' 
WAVCIS,ioos:station:WAVCIS:CSI06:1,2009-07-04T12:00:00Z,28.8667,-90.4833,10.0,6.113,239.0,,'11111222,11111222,99999999' 
WAVCIS,ioos:station:WAVCIS:CSI06:1,2009-07-04T13:00:00Z,28.8667,-90.4833,10.0,6.316,244.0,,'11111222,11111222,99999999' 
WAVCIS,ioos:station:WAVCIS:CSI06:1,2009-07-04T14:00:00Z,28.8667,-90.4833,10.0,6.967,253.0,,'11111222,11111222,99999999' 
WAVCIS,ioos:station:WAVCIS:CSI06:1,2009-07-04T15:00:00Z,28.8667,-90.4833,10.0,6.19,262.0,,'11111222,11111222,99999999' 
WAVCIS,ioos:station:WAVCIS:CSI06:1,2009-07-04T16:00:00Z,28.8667,-90.4833,10.0,6.244,269.0,,'11111222,11111222,99999999' 
WAVCIS,ioos:station:WAVCIS:CSI06:1,2009-07-04T17:00:00Z,28.8667,-90.4833,10.0,6.931,275.0,,'11111222,11111222,99999999' 
WAVCIS,ioos:station:WAVCIS:CSI06:1,2009-07-04T18:00:00Z,28.8667,-90.4833,10.0,7.31,262.0,,'11111222,11111222,99999999' 
WAVCIS,ioos:station:WAVCIS:CSI06:1,2009-07-04T19:00:00Z,28.8667,-90.4833,10.0,6.291,270.0,,'11111222,11111222,99999999' 
WAVCIS,ioos:station:WAVCIS:CSI06:1,2009-07-04T20:00:00Z,28.8667,-90.4833,10.0,6.867,282.0,,'11111222,11111222,99999999' 
WAVCIS,ioos:station:WAVCIS:CSI06:1,2009-07-04T21:00:00Z,28.8667,-90.4833,10.0,5.886,273.0,,'11111222,11111222,99999999' 
WAVCIS,ioos:station:WAVCIS:CSI06:1,2009-07-04T22:00:00Z,28.8667,-90.4833,10.0,6.167,273.0,,'11111222,11111222,99999999' 
WAVCIS,ioos:station:WAVCIS:CSI06:1,2009-07-04T23:00:00Z,28.8667,-90.4833,10.0,4.388,272.0,,'11111222,11111222,99999999' 
WAVCIS,ioos:station:WAVCIS:CSI06:1,2009-07-05T00:00:00Z,28.8667,-90.4833,10.0,4.823,270.0,,'11111222,11111222,99999999' 
WAVCIS,ioos:station:WAVCIS:CSI06:1,2009-07-05T01:00:00Z,28.8667,-90.4833,10.0,4.507,270.0,,'11111222,11111222,99999999' 
WAVCIS,ioos:station:WAVCIS:CSI06:1,2009-07-05T02:00:00Z,28.8667,-90.4833,10.0,3.868,239.0,,'11111222,11111222,99999999' 
WAVCIS,ioos:station:WAVCIS:CSI06:1,2009-07-05T03:00:00Z,28.8667,-90.4833,10.0,5.315,232.0,,'11111222,11111222,99999999' 
WAVCIS,ioos:station:WAVCIS:CSI06:1,2009-07-05T04:00:00Z,28.8667,-90.4833,10.0,5.6,218.0,,'11111222,11111222,99999999' 
WAVCIS,ioos:station:WAVCIS:CSI06:1,2009-07-05T05:00:00Z,28.8667,-90.4833,10.0,6.764,212.0,,'11111222,11111222,99999999' 
WAVCIS,ioos:station:WAVCIS:CSI06:1,2009-07-05T06:00:00Z,28.8667,-90.4833,10.0,7.46,212.0,,'11111222,11111222,99999999' 
WAVCIS,ioos:station:WAVCIS:CSI06:1,2009-07-05T07:00:00Z,28.8667,-90.4833,10.0,7.93,223.0,,'11111222,11111222,99999999' 
WAVCIS,ioos:station:WAVCIS:CSI06:1,2009-07-05T08:00:00Z,28.8667,-90.4833,10.0,7.64,245.0,,'11111222,11111222,99999999' 
WAVCIS,ioos:station:WAVCIS:CSI06:1,2009-07-05T09:00:00Z,28.8667,-90.4833,10.0,8.5,236.0,,'11111222,11111222,99999999' 
WAVCIS,ioos:station:WAVCIS:CSI06:1,2009-07-05T10:00:00Z,28.8667,-90.4833,10.0,8.3,238.0,,'11111222,11111222,99999999' 
WAVCIS,ioos:station:WAVCIS:CSI06:1,2009-07-05T11:00:00Z,28.8667,-90.4833,10.0,8.32,255.0,,'11111222,11111222,99999999' 
WAVCIS,ioos:station:WAVCIS:CSI06:1,2009-07-05T12:00:00Z,28.8667,-90.4833,10.0,9.36,256.0,,'11111222,11111222,99999999' 
WAVCIS,ioos:station:WAVCIS:CSI06:1,2009-07-05T13:00:00Z,28.8667,-90.4833,10.0,8.52,257.0,,'11111222,11111222,99999999' 
WAVCIS,ioos:station:WAVCIS:CSI06:1,2009-07-05T14:00:00Z,28.8667,-90.4833,10.0,8.14,266.0,,'11111222,11111222,99999999' 
WAVCIS,ioos:station:WAVCIS:CSI06:1,2009-07-05T15:00:00Z,28.8667,-90.4833,10.0,6.815,267.0,,'11111222,11111222,99999999' 
WAVCIS,ioos:station:WAVCIS:CSI06:1,2009-07-05T16:00:00Z,28.8667,-90.4833,10.0,6.898,258.0,,'11111222,11111222,99999999' 
WAVCIS,ioos:station:WAVCIS:CSI06:1,2009-07-05T17:00:00Z,28.8667,-90.4833,10.0,6.861,260.0,,'11111222,11111222,99999999' 
WAVCIS,ioos:station:WAVCIS:CSI06:1,2009-07-05T18:00:00Z,28.8667,-90.4833,10.0,8.73,274.0,,'11111222,11111222,99999999' 
WAVCIS,ioos:station:WAVCIS:CSI06:1,2009-07-05T19:00:00Z,28.8667,-90.4833,10.0,8.9,276.0,,'11111222,11111222,99999999' 
WAVCIS,ioos:station:WAVCIS:CSI06:1,2009-07-05T20:00:00Z,28.8667,-90.4833,10.0,8.46,276.0,,'11111222,11111222,99999999' 
WAVCIS,ioos:station:WAVCIS:CSI06:1,2009-07-05T21:00:00Z,28.8667,-90.4833,10.0,7.1,262.0,,'11111222,11111222,99999999' 
WAVCIS,ioos:station:WAVCIS:CSI06:1,2009-07-05T22:00:00Z,28.8667,-90.4833,10.0,7.69,268.0,,'11111222,11111222,99999999' 
WAVCIS,ioos:station:WAVCIS:CSI06:1,2009-07-05T23:00:00Z,28.8667,-90.4833,10.0,7.08,262.0,,'11111222,11111222,99999999' 
WAVCIS,ioos:station:WAVCIS:CSI06:1,2009-07-06T00:00:00Z,28.8667,-90.4833,10.0,7.65,260.0,,'11111222,11111222,99999999' 
WAVCIS,ioos:station:WAVCIS:CSI06:1,2009-07-06T01:00:00Z,28.8667,-90.4833,10.0,8.37,260.0,,'11111222,11111222,99999999' 
WAVCIS,ioos:station:WAVCIS:CSI06:1,2009-07-06T02:00:00Z,28.8667,-90.4833,10.0,7.86,255.0,,'11111222,11111222,99999999' 
WAVCIS,ioos:station:WAVCIS:CSI06:1,2009-07-06T03:00:00Z,28.8667,-90.4833,10.0,7.27,254.0,,'11111222,11111222,99999999' 
WAVCIS,ioos:station:WAVCIS:CSI06:1,2009-07-06T04:00:00Z,28.8667,-90.4833,10.0,6.829,253.0,,'11111222,11111222,99999999' 
WAVCIS,ioos:station:WAVCIS:CSI06:1,2009-07-06T05:00:00Z,28.8667,-90.4833,10.0,7.56,238.0,,'11111222,11111222,99999999' 
WAVCIS,ioos:station:WAVCIS:CSI06:1,2009-07-06T06:00:00Z,28.8667,-90.4833,10.0,8.35,244.0,,'11111222,11111222,99999999' 
WAVCIS,ioos:station:WAVCIS:CSI06:1,2009-07-06T07:00:00Z,28.8667,-90.4833,10.0,8.1,243.0,,'11111222,11111222,99999999' 
WAVCIS,ioos:station:WAVCIS:CSI06:1,2009-07-06T08:00:00Z,28.8667,-90.4833,10.0,7.87,243.0,,'11111222,11111222,99999999' 
WAVCIS,ioos:station:WAVCIS:CSI06:1,2009-07-06T09:00:00Z,28.8667,-90.4833,10.0,7.77,252.0,,'11111222,11111222,99999999' 
WAVCIS,ioos:station:WAVCIS:CSI06:1,2009-07-06T10:00:00Z,28.8667,-90.4833,10.0,7.29,247.0,,'11111222,11111222,99999999' 
WAVCIS,ioos:station:WAVCIS:CSI06:1,2009-07-06T11:00:00Z,28.8667,-90.4833,10.0,7.98,251.0,,'11111222,11111222,99999999' 
WAVCIS,ioos:station:WAVCIS:CSI06:1,2009-07-06T12:00:00Z,28.8667,-90.4833,10.0,7.64,245.0,,'11111222,11111222,99999999' 
WAVCIS,ioos:station:WAVCIS:CSI06:1,2009-07-06T13:00:00Z,28.8667,-90.4833,10.0,7.86,243.0,,'11111222,11111222,99999999' 
WAVCIS,ioos:station:WAVCIS:CSI06:1,2009-07-06T14:00:00Z,28.8667,-90.4833,10.0,8.48,257.0,,'11111222,11111222,99999999' 
WAVCIS,ioos:station:WAVCIS:CSI06:1,2009-07-06T15:00:00Z,28.8667,-90.4833,10.0,9.63,251.0,,'11111222,11111222,99999999' 
WAVCIS,ioos:station:WAVCIS:CSI06:1,2009-07-06T16:00:00Z,28.8667,-90.4833,10.0,9.51,255.0,,'11111222,11111222,99999999' 
WAVCIS,ioos:station:WAVCIS:CSI06:1,2009-07-06T17:00:00Z,28.8667,-90.4833,10.0,10.61,259.0,,'11111222,11111222,99999999' 
WAVCIS,ioos:station:WAVCIS:CSI06:1,2009-07-06T18:00:00Z,28.8667,-90.4833,10.0,9.88,253.0,,'11111222,11111222,99999999' 
WAVCIS,ioos:station:WAVCIS:CSI06:1,2009-07-06T19:00:00Z,28.8667,-90.4833,10.0,8.48,256.0,,'11111222,11111222,99999999' 
WAVCIS,ioos:station:WAVCIS:CSI06:1,2009-07-06T20:00:00Z,28.8667,-90.4833,10.0,7.9,274.0,,'11111222,11111222,99999999' 
WAVCIS,ioos:station:WAVCIS:CSI06:1,2009-07-06T21:00:00Z,28.8667,-90.4833,10.0,7.94,275.0,,'11111222,11111222,99999999' 
WAVCIS,ioos:station:WAVCIS:CSI06:1,2009-07-06T22:00:00Z,28.8667,-90.4833,10.0,6.703,272.0,,'11111222,11111222,99999999' 
WAVCIS,ioos:station:WAVCIS:CSI06:1,2009-07-06T23:00:00Z,28.8667,-90.4833,10.0,3.718,263.0,,'11111222,11111222,99999999' 
WAVCIS,ioos:station:WAVCIS:CSI06:1,2009-07-07T00:00:00Z,28.8667,-90.4833,10.0,4.443,248.0,,'11111222,11111222,99999999' 
WAVCIS,ioos:station:WAVCIS:CSI06:1,2009-07-07T01:00:00Z,28.8667,-90.4833,10.0,4.33,237.0,,'11111222,11111222,99999999' 
WAVCIS,ioos:station:WAVCIS:CSI06:1,2009-07-07T02:00:00Z,28.8667,-90.4833,10.0,5.038,221.0,,'11111222,11111222,99999999' 
WAVCIS,ioos:station:WAVCIS:CSI06:1,2009-07-07T03:00:00Z,28.8667,-90.4833,10.0,5.399,228.0,,'11111222,11111222,99999999' 
WAVCIS,ioos:station:WAVCIS:CSI06:1,2009-07-07T04:00:00Z,28.8667,-90.4833,10.0,5.907,245.0,,'11111222,11111222,99999999' 
WAVCIS,ioos:station:WAVCIS:CSI06:1,2009-07-07T05:00:00Z,28.8667,-90.4833,10.0,6.575,246.0,,'11111222,11111222,99999999' 
WAVCIS,ioos:station:WAVCIS:CSI06:1,2009-07-07T06:00:00Z,28.8667,-90.4833,10.0,6.618,247.0,,'11111222,11111222,99999999' 
WAVCIS,ioos:station:WAVCIS:CSI06:1,2009-07-07T07:00:00Z,28.8667,-90.4833,10.0,8.53,244.0,,'11111222,11111222,99999999' 
WAVCIS,ioos:station:WAVCIS:CSI06:1,2009-07-07T08:00:00Z,28.8667,-90.4833,10.0,8.76,242.0,,'11111222,11111222,99999999' 
WAVCIS,ioos:station:WAVCIS:CSI06:1,2009-07-07T09:00:00Z,28.8667,-90.4833,10.0,8.47,241.0,,'11111222,11111222,99999999' 
WAVCIS,ioos:station:WAVCIS:CSI06:1,2009-07-07T10:00:00Z,28.8667,-90.4833,10.0,8.23,241.0,,'11111222,11111222,99999999' 
WAVCIS,ioos:station:WAVCIS:CSI06:1,2009-07-07T11:00:00Z,28.8667,-90.4833,10.0,8.87,245.0,,'11111222,11111222,99999999' 
WAVCIS,ioos:station:WAVCIS:CSI06:1,2009-07-07T12:00:00Z,28.8667,-90.4833,10.0,8.5,244.0,,'11111222,11111222,99999999' 
WAVCIS,ioos:station:WAVCIS:CSI06:1,2009-07-07T13:00:00Z,28.8667,-90.4833,10.0,9.42,252.0,,'11111222,11111222,99999999' 
WAVCIS,ioos:station:WAVCIS:CSI06:1,2009-07-07T14:00:00Z,28.8667,-90.4833,10.0,8.58,264.0,,'11111222,11111222,99999999' 
WAVCIS,ioos:station:WAVCIS:CSI06:1,2009-07-07T15:00:00Z,28.8667,-90.4833,10.0,7.65,292.0,,'11111222,11111222,99999999' 
WAVCIS,ioos:station:WAVCIS:CSI06:1,2009-07-07T16:00:00Z,28.8667,-90.4833,10.0,2.995,322.0,,'11111222,11111222,99999999' 
WAVCIS,ioos:station:WAVCIS:CSI06:1,2009-07-07T17:00:00Z,28.8667,-90.4833,10.0,1.429,122.0,,'11111222,11111222,99999999' 
WAVCIS,ioos:station:WAVCIS:CSI06:1,2009-07-07T18:00:00Z,28.8667,-90.4833,10.0,3.845,210.0,,'11111222,11111222,99999999' 
WAVCIS,ioos:station:WAVCIS:CSI06:1,2009-07-07T19:00:00Z,28.8667,-90.4833,10.0,3.332,249.0,,'11111222,11111222,99999999' 
WAVCIS,ioos:station:WAVCIS:CSI06:1,2009-07-07T20:00:00Z,28.8667,-90.4833,10.0,11.18,229.0,,'11111222,11111222,99999999' 
WAVCIS,ioos:station:WAVCIS:CSI06:1,2009-07-07T21:00:00Z,28.8667,-90.4833,10.0,6.461,289.0,,'11111222,11111222,99999999' 
WAVCIS,ioos:station:WAVCIS:CSI06:1,2009-07-07T22:00:00Z,28.8667,-90.4833,10.0,6.871,316.0,,'11111222,11111222,99999999' 
WAVCIS,ioos:station:WAVCIS:CSI06:1,2009-07-07T23:00:00Z,28.8667,-90.4833,10.0,3.681,321.0,,'11111222,11111222,99999999' 
WAVCIS,ioos:station:WAVCIS:CSI06:1,2009-07-08T00:00:00Z,28.8667,-90.4833,10.0,0.446,187.0,,'11111222,11111222,99999999' 
WAVCIS,ioos:station:WAVCIS:CSI06:1,2009-07-08T01:00:00Z,28.8667,-90.4833,10.0,2.481,190.0,,'11111222,11111222,99999999' 
WAVCIS,ioos:station:WAVCIS:CSI06:1,2009-07-08T02:00:00Z,28.8667,-90.4833,10.0,2.554,196.0,,'11111222,11111222,99999999' 
WAVCIS,ioos:station:WAVCIS:CSI06:1,2009-07-08T03:00:00Z,28.8667,-90.4833,10.0,3.8,214.0,,'11111222,11111222,99999999' 
WAVCIS,ioos:station:WAVCIS:CSI06:1,2009-07-08T04:00:00Z,28.8667,-90.4833,10.0,4.17,217.0,,'11111222,11111222,99999999' 
WAVCIS,ioos:station:WAVCIS:CSI06:1,2009-07-08T05:00:00Z,28.8667,-90.4833,10.0,4.609,225.0,,'11111222,11111222,99999999' 
WAVCIS,ioos:station:WAVCIS:CSI06:1,2009-07-08T06:00:00Z,28.8667,-90.4833,10.0,4.824,235.0,,'11111222,11111222,99999999' 
WAVCIS,ioos:station:WAVCIS:CSI06:1,2009-07-08T07:00:00Z,28.8667,-90.4833,10.0,4.697,227.0,,'11111222,11111222,99999999' 
WAVCIS,ioos:station:WAVCIS:CSI06:1,2009-07-08T08:00:00Z,28.8667,-90.4833,10.0,5.254,239.0,,'11111222,11111222,99999999' 
WAVCIS,ioos:station:WAVCIS:CSI06:1,2009-07-08T09:00:00Z,28.8667,-90.4833,10.0,7.63,328.0,,'11111222,11111222,99999999' 
WAVCIS,ioos:station:WAVCIS:CSI06:1,2009-07-08T10:00:00Z,28.8667,-90.4833,10.0,2.577,177.0,,'11111222,11111222,99999999' 
WAVCIS,ioos:station:WAVCIS:CSI06:1,2009-07-08T11:00:00Z,28.8667,-90.4833,10.0,2.862,146.0,,'11111222,11111222,99999999' 
WAVCIS,ioos:station:WAVCIS:CSI06:1,2009-07-08T12:00:00Z,28.8667,-90.4833,10.0,5.117,202.0,,'11111222,11111222,99999999' 
WAVCIS,ioos:station:WAVCIS:CSI06:1,2009-07-08T13:00:00Z,28.8667,-90.4833,10.0,6.368,232.0,,'11111222,11111222,99999999' 
WAVCIS,ioos:station:WAVCIS:CSI06:1,2009-07-08T14:00:00Z,28.8667,-90.4833,10.0,10.49,267.0,,'11111222,11111222,99999999' 
WAVCIS,ioos:station:WAVCIS:CSI06:1,2009-07-08T15:00:00Z,28.8667,-90.4833,10.0,8.44,270.0,,'11111222,11111222,99999999' 
WAVCIS,ioos:station:WAVCIS:CSI06:1,2009-07-08T16:00:00Z,28.8667,-90.4833,10.0,7.1,276.0,,'11111222,11111222,99999999' 
WAVCIS,ioos:station:WAVCIS:CSI06:1,2009-07-08T17:00:00Z,28.8667,-90.4833,10.0,5.151,275.0,,'11111222,11111222,99999999' 
WAVCIS,ioos:station:WAVCIS:CSI06:1,2009-07-08T18:00:00Z,28.8667,-90.4833,10.0,5.578,275.0,,'11111222,11111222,99999999' 
WAVCIS,ioos:station:WAVCIS:CSI06:1,2009-07-08T19:00:00Z,28.8667,-90.4833,10.0,6.657,249.0,,'11111222,11111222,99999999' 
WAVCIS,ioos:station:WAVCIS:CSI06:1,2009-07-08T20:00:00Z,28.8667,-90.4833,10.0,5.707,283.0,,'11111222,11111222,99999999' 
WAVCIS,ioos:station:WAVCIS:CSI06:1,2009-07-08T21:00:00Z,28.8667,-90.4833,10.0,5.494,244.0,,'11111222,11111222,99999999' 
WAVCIS,ioos:station:WAVCIS:CSI06:1,2009-07-08T22:00:00Z,28.8667,-90.4833,10.0,4.445,249.0,,'11111222,11111222,99999999' 
WAVCIS,ioos:station:WAVCIS:CSI06:1,2009-07-08T23:00:00Z,28.8667,-90.4833,10.0,5.365,246.0,,'11111222,11111222,99999999' 
WAVCIS,ioos:station:WAVCIS:CSI06:1,2009-07-09T00:00:00Z,28.8667,-90.4833,10.0,5.911,240.0,,'11111222,11111222,99999999' 
WAVCIS,ioos:station:WAVCIS:CSI06:1,2009-07-09T01:00:00Z,28.8667,-90.4833,10.0,5.962,241.0,,'11111222,11111222,99999999' 
WAVCIS,ioos:station:WAVCIS:CSI06:1,2009-07-09T02:00:00Z,28.8667,-90.4833,10.0,4.745,250.0,,'11111222,11111222,99999999' 
WAVCIS,ioos:station:WAVCIS:CSI06:1,2009-07-09T03:00:00Z,28.8667,-90.4833,10.0,5.847,248.0,,'11111222,11111222,99999999' 
WAVCIS,ioos:station:WAVCIS:CSI06:1,2009-07-09T04:00:00Z,28.8667,-90.4833,10.0,4.963,246.0,,'11111222,11111222,99999999' 
WAVCIS,ioos:station:WAVCIS:CSI06:1,2009-07-09T05:00:00Z,28.8667,-90.4833,10.0,4.181,240.0,,'11111222,11111222,99999999' 